Time,TemperatureF,DewpointF,PressureIn,WindDirection,WindDirectionDegrees,WindSpeedMPH,WindSpeedGustMPH,Humidity,HourlyPrecipIn,Conditions,Clouds,dailyrainin,SoftwareType,DateUTC
2013-01-20 00:01:00,34.0,34.0,29.49,West,280,7.0,-999.0,100,0.00,,,-99.99,,2013-01-20 05:01:00,
2013-01-20 00:12:00,34.0,34.0,29.48,West,260,9.0,-999.0,100,0.00,,,-99.99,,2013-01-20 05:12:00,
2013-01-20 00:22:00,34.0,34.0,29.47,West,260,9.0,-999.0,100,0.00,,,-99.99,,2013-01-20 05:22:00,
2013-01-20 00:32:00,34.0,34.0,29.47,West,260,10.0,-999.0,100,0.00,,,-99.99,,2013-01-20 05:32:00,
2013-01-20 00:42:00,34.0,34.0,29.47,West,260,9.0,-999.0,100,0.00,,,-99.99,,2013-01-20 05:42:00,
2013-01-20 00:52:00,36.0,34.0,29.48,WSW,250,13.0,16.0,93,0.00,,,-99.99,,2013-01-20 05:52:00,
2013-01-20 01:02:00,36.0,34.0,29.48,WSW,250,13.0,16.0,93,0.00,,,-99.99,,2013-01-20 06:02:00,
2013-01-20 01:11:00,36.0,30.0,29.48,West,270,20.0,28.0,80,0.00,,,-99.99,,2013-01-20 06:11:00,
2013-01-20 01:22:00,34.0,30.0,29.51,WNW,300,22.0,31.0,86,0.00,,,-99.99,,2013-01-20 06:22:00,
2013-01-20 01:32:00,32.0,30.0,29.52,WNW,290,17.0,31.0,92,0.00,,,-99.99,,2013-01-20 06:32:00,
2013-01-20 01:42:00,32.0,28.0,29.52,WNW,290,17.0,29.0,86,0.00,,,-99.99,,2013-01-20 06:42:00,
2013-01-20 01:52:00,30.0,27.0,29.54,West,280,18.0,32.0,86,0.00,,,-99.99,,2013-01-20 06:52:00,
2013-01-20 02:02:00,30.0,27.0,29.54,West,280,18.0,32.0,86,0.00,,,-99.99,,2013-01-20 07:02:00,
2013-01-20 02:11:00,30.0,25.0,29.55,West,270,16.0,28.0,80,0.00,,,-99.99,,2013-01-20 07:11:00,
2013-01-20 02:21:00,30.0,21.0,29.57,West,270,22.0,33.0,68,0.00,,,-99.99,,2013-01-20 07:21:00,
2013-01-20 02:32:00,28.0,21.0,29.59,West,280,20.0,33.0,74,0.00,,,-99.99,,2013-01-20 07:32:00,
2013-01-20 02:42:00,28.0,23.0,29.60,WNW,290,21.0,33.0,79,0.00,,,-99.99,,2013-01-20 07:42:00,
2013-01-20 02:52:00,27.0,25.0,29.63,WNW,290,18.0,32.0,92,0.00,,,-99.99,,2013-01-20 07:52:00,
2013-01-20 03:01:00,27.0,25.0,29.63,WNW,290,18.0,32.0,92,0.00,,,-99.99,,2013-01-20 08:01:00,
2013-01-20 03:11:00,27.0,23.0,29.65,WNW,290,22.0,30.0,86,0.00,,,-99.99,,2013-01-20 08:11:00,
2013-01-20 03:22:00,27.0,19.0,29.67,WNW,290,25.0,38.0,73,0.00,,,-99.99,,2013-01-20 08:22:00,
2013-01-20 03:32:00,27.0,18.0,29.68,WNW,290,27.0,39.0,68,0.00,,,-99.99,,2013-01-20 08:32:00,
2013-01-20 03:42:00,27.0,18.0,29.69,WNW,290,23.0,39.0,68,0.00,,,-99.99,,2013-01-20 08:42:00,
2013-01-20 03:52:00,25.0,18.0,29.71,WNW,290,17.0,37.0,73,0.00,,,-99.99,,2013-01-20 08:52:00,
2013-01-20 04:02:00,25.0,18.0,29.71,WNW,290,17.0,37.0,73,0.00,,,-99.99,,2013-01-20 09:02:00,
2013-01-20 04:12:00,25.0,16.0,29.73,NW,310,16.0,32.0,68,0.00,,,-99.99,,2013-01-20 09:12:00,
2013-01-20 04:21:00,21.0,18.0,29.75,NW,310,17.0,27.0,85,0.00,,,-99.99,,2013-01-20 09:21:00,
2013-01-20 04:32:00,21.0,18.0,29.76,NW,310,14.0,23.0,85,0.00,,,-99.99,,2013-01-20 09:32:00,
2013-01-20 04:42:00,21.0,18.0,29.77,WNW,300,13.0,21.0,85,0.00,,,-99.99,,2013-01-20 09:42:00,
2013-01-20 04:52:00,21.0,14.0,29.78,West,280,18.0,27.0,73,0.00,,,-99.99,,2013-01-20 09:52:00,
2013-01-20 05:02:00,21.0,14.0,29.78,West,280,18.0,27.0,73,0.00,,,-99.99,,2013-01-20 10:02:00,
2013-01-20 05:11:00,21.0,12.0,29.79,WNW,300,18.0,30.0,67,0.00,,,-99.99,,2013-01-20 10:11:00,
2013-01-20 05:22:00,19.0,12.0,29.80,West,280,18.0,30.0,73,0.00,,,-99.99,,2013-01-20 10:22:00,
2013-01-20 05:32:00,19.0,14.0,29.81,WNW,300,25.0,37.0,79,0.00,,,-99.99,,2013-01-20 10:32:00,
2013-01-20 05:42:00,18.0,12.0,29.82,WNW,290,17.0,37.0,78,0.00,,,-99.99,,2013-01-20 10:42:00,
2013-01-20 05:52:00,18.0,10.0,29.84,WNW,300,20.0,29.0,72,0.00,,,-99.99,,2013-01-20 10:52:00,
2013-01-20 06:02:00,18.0,10.0,29.84,WNW,300,20.0,29.0,72,0.00,,,-99.99,,2013-01-20 11:02:00,
2013-01-20 06:11:00,18.0,7.0,29.86,WNW,290,15.0,25.0,62,0.00,,,-99.99,,2013-01-20 11:11:00,
2013-01-20 06:22:00,16.0,7.0,29.87,WNW,290,21.0,32.0,67,0.00,,,-99.99,,2013-01-20 11:22:00,
2013-01-20 06:32:00,16.0,7.0,29.87,West,280,15.0,29.0,67,0.00,,,-99.99,,2013-01-20 11:32:00,
2013-01-20 06:42:00,16.0,7.0,29.88,WNW,290,16.0,24.0,67,0.00,,,-99.99,,2013-01-20 11:42:00,
2013-01-20 06:52:00,16.0,7.0,29.89,WNW,290,17.0,23.0,67,0.00,,,-99.99,,2013-01-20 11:52:00,
2013-01-20 07:02:00,16.0,7.0,29.89,WNW,290,17.0,23.0,67,0.00,,,-99.99,,2013-01-20 12:02:00,
2013-01-20 07:11:00,16.0,7.0,29.90,WNW,290,18.0,25.0,67,0.00,,,0.00,,2013-01-20 12:11:00,
2013-01-20 07:22:00,16.0,7.0,29.92,West,280,17.0,28.0,67,0.00,,,0.00,,2013-01-20 12:22:00,
2013-01-20 07:32:00,16.0,7.0,29.92,West,270,16.0,29.0,67,0.00,,,0.00,,2013-01-20 12:32:00,
2013-01-20 07:42:00,16.0,7.0,29.92,WNW,290,17.0,23.0,67,0.00,,,0.00,,2013-01-20 12:42:00,
2013-01-20 07:52:00,16.0,7.0,29.93,West,280,14.0,28.0,67,0.00,,,0.00,,2013-01-20 12:52:00,
2013-01-20 08:02:00,16.0,7.0,29.93,West,280,14.0,28.0,67,0.00,,,0.00,,2013-01-20 13:02:00,
2013-01-20 08:11:00,16.0,9.0,29.94,West,280,14.0,22.0,72,0.00,,,-99.99,,2013-01-20 13:11:00,
2013-01-20 08:22:00,16.0,9.0,29.95,West,280,14.0,29.0,72,0.00,,,-99.99,,2013-01-20 13:22:00,
2013-01-20 08:32:00,16.0,9.0,29.96,West,270,15.0,25.0,72,0.00,,,-99.99,,2013-01-20 13:32:00,
2013-01-20 08:42:00,16.0,9.0,29.98,West,280,16.0,22.0,72,0.00,,,-99.99,,2013-01-20 13:42:00,
2013-01-20 08:52:00,16.0,9.0,29.99,West,270,17.0,28.0,72,0.00,,,-99.99,,2013-01-20 13:52:00,
2013-01-20 09:01:00,16.0,9.0,29.99,West,270,17.0,28.0,72,0.00,,,-99.99,,2013-01-20 14:01:00,
2013-01-20 09:11:00,18.0,9.0,30.00,West,270,16.0,23.0,67,0.00,,,-99.99,,2013-01-20 14:11:00,
2013-01-20 09:22:00,18.0,9.0,30.02,West,280,14.0,23.0,67,0.00,,,-99.99,,2013-01-20 14:22:00,
2013-01-20 09:32:00,18.0,9.0,30.03,West,280,15.0,23.0,67,0.00,,,-99.99,,2013-01-20 14:32:00,
2013-01-20 09:42:00,18.0,10.0,30.03,WNW,290,15.0,23.0,72,0.00,,,-99.99,,2013-01-20 14:42:00,
2013-01-20 09:52:00,18.0,10.0,30.03,WNW,290,17.0,25.0,72,0.00,,,-99.99,,2013-01-20 14:52:00,
2013-01-20 10:02:00,18.0,10.0,30.03,WNW,290,17.0,25.0,72,0.00,,,-99.99,,2013-01-20 15:02:00,
2013-01-20 10:11:00,19.0,9.0,30.05,WNW,300,17.0,28.0,62,0.00,,,-99.99,,2013-01-20 15:11:00,
2013-01-20 10:22:00,19.0,9.0,30.05,WNW,290,23.0,32.0,62,0.00,,,-99.99,,2013-01-20 15:22:00,
2013-01-20 10:32:00,19.0,9.0,30.05,WNW,300,22.0,30.0,62,0.00,,,-99.99,,2013-01-20 15:32:00,
2013-01-20 10:42:00,19.0,9.0,30.05,WNW,300,23.0,31.0,62,0.00,,,-99.99,,2013-01-20 15:42:00,
2013-01-20 10:52:00,19.0,7.0,30.06,NW,310,18.0,27.0,57,0.00,,,-99.99,,2013-01-20 15:52:00,
2013-01-20 11:02:00,19.0,7.0,30.06,NW,310,18.0,27.0,57,0.00,,,-99.99,,2013-01-20 16:02:00,
2013-01-20 11:11:00,19.0,7.0,30.07,NW,320,16.0,29.0,57,0.00,,,-99.99,,2013-01-20 16:11:00,
2013-01-20 11:22:00,19.0,7.0,30.08,NW,310,18.0,30.0,57,0.00,,,-99.99,,2013-01-20 16:22:00,
2013-01-20 11:32:00,19.0,7.0,30.08,WNW,290,22.0,30.0,57,0.00,,,-99.99,,2013-01-20 16:32:00,
2013-01-20 11:42:00,19.0,7.0,30.08,WNW,300,16.0,30.0,57,0.00,,,-99.99,,2013-01-20 16:42:00,
2013-01-20 11:52:00,19.0,9.0,30.09,WNW,290,13.0,22.0,62,0.00,,,-99.99,,2013-01-20 16:52:00,
2013-01-20 12:02:00,19.0,9.0,30.09,WNW,290,13.0,22.0,62,0.00,,,-99.99,,2013-01-20 17:02:00,
2013-01-20 12:11:00,19.0,9.0,30.09,WNW,290,9.0,23.0,62,0.00,,,-99.99,,2013-01-20 17:11:00,
2013-01-20 12:22:00,19.0,9.0,30.09,WNW,300,14.0,24.0,62,0.00,,,-99.99,,2013-01-20 17:22:00,
2013-01-20 12:32:00,19.0,7.0,30.09,WNW,290,16.0,25.0,57,0.00,,,-99.99,,2013-01-20 17:32:00,
2013-01-20 12:42:00,19.0,7.0,30.09,WNW,290,13.0,25.0,57,0.00,,,-99.99,,2013-01-20 17:42:00,
2013-01-20 12:52:00,19.0,9.0,30.09,WNW,290,13.0,25.0,62,0.00,,,-99.99,,2013-01-20 17:52:00,
2013-01-20 13:02:00,19.0,9.0,30.09,WNW,290,13.0,25.0,62,0.00,,,-99.99,,2013-01-20 18:02:00,
2013-01-20 13:12:00,19.0,9.0,30.08,WNW,300,12.0,22.0,62,0.00,,,-99.99,,2013-01-20 18:12:00,
2013-01-20 13:22:00,19.0,9.0,30.09,NW,320,16.0,21.0,62,0.00,,,-99.99,,2013-01-20 18:22:00,
2013-01-20 13:32:00,18.0,9.0,30.09,NW,310,14.0,21.0,67,0.00,,,-99.99,,2013-01-20 18:32:00,
2013-01-20 13:42:00,18.0,9.0,30.09,NW,310,13.0,18.0,67,0.00,,,-99.99,,2013-01-20 18:42:00,
2013-01-20 13:52:00,19.0,7.0,30.09,West,280,16.0,23.0,57,0.00,,,-99.99,,2013-01-20 18:52:00,
2013-01-20 14:02:00,19.0,7.0,30.09,West,280,16.0,23.0,57,0.00,,,-99.99,,2013-01-20 19:02:00,
2013-01-20 14:11:00,19.0,7.0,30.09,West,280,16.0,23.0,57,0.00,,,-99.99,,2013-01-20 19:11:00,
2013-01-20 14:21:00,19.0,7.0,30.09,WNW,290,15.0,22.0,57,0.00,,,-99.99,,2013-01-20 19:21:00,
2013-01-20 14:32:00,19.0,7.0,30.09,West,280,15.0,24.0,57,0.00,,,-99.99,,2013-01-20 19:32:00,
2013-01-20 14:42:00,19.0,7.0,30.09,West,280,13.0,24.0,57,0.00,,,-99.99,,2013-01-20 19:42:00,
2013-01-20 14:52:00,19.0,7.0,30.10,West,280,12.0,22.0,57,0.00,,,-99.99,,2013-01-20 19:52:00,
2013-01-20 15:02:00,19.0,7.0,30.10,West,280,12.0,22.0,57,0.00,,,-99.99,,2013-01-20 20:02:00,
2013-01-20 15:11:00,18.0,7.0,30.11,WNW,300,13.0,23.0,62,0.00,,,-99.99,,2013-01-20 20:11:00,
2013-01-20 15:22:00,18.0,7.0,30.11,WNW,290,13.0,24.0,62,0.00,,,-99.99,,2013-01-20 20:22:00,
2013-01-20 15:32:00,19.0,7.0,30.11,West,280,16.0,24.0,57,0.00,,,-99.99,,2013-01-20 20:32:00,
2013-01-20 15:42:00,18.0,7.0,30.11,West,280,13.0,22.0,62,0.00,,,-99.99,,2013-01-20 20:42:00,
2013-01-20 15:52:00,18.0,5.0,30.12,WNW,290,9.0,18.0,57,0.00,,,-99.99,,2013-01-20 20:52:00,
2013-01-20 16:02:00,18.0,5.0,30.12,WNW,290,9.0,18.0,57,0.00,,,-99.99,,2013-01-20 21:02:00,
2013-01-20 16:12:00,18.0,7.0,30.12,WNW,300,13.0,21.0,62,0.00,,,-99.99,,2013-01-20 21:12:00,
2013-01-20 16:21:00,18.0,5.0,30.11,WNW,300,10.0,18.0,57,0.00,,,-99.99,,2013-01-20 21:21:00,
2013-01-20 16:32:00,18.0,7.0,30.12,WNW,300,13.0,21.0,62,0.00,,,-99.99,,2013-01-20 21:32:00,
2013-01-20 16:42:00,18.0,7.0,30.12,WNW,290,12.0,21.0,62,0.00,,,-99.99,,2013-01-20 21:42:00,
2013-01-20 16:52:00,18.0,7.0,30.12,West,280,10.0,17.0,62,0.00,,,-99.99,,2013-01-20 21:52:00,
2013-01-20 17:11:00,18.0,9.0,30.12,WNW,290,10.0,18.0,67,0.00,,,-99.99,,2013-01-20 22:11:00,
2013-01-20 17:32:00,18.0,7.0,30.13,West,280,14.0,18.0,62,0.00,,,-99.99,,2013-01-20 22:32:00,
2013-01-20 17:42:00,18.0,7.0,30.13,WNW,290,12.0,18.0,62,0.00,,,-99.99,,2013-01-20 22:42:00,
2013-01-20 17:52:00,18.0,5.0,30.14,WNW,290,14.0,17.0,57,0.00,,,-99.99,,2013-01-20 22:52:00,
2013-01-20 18:02:00,18.0,5.0,30.14,WNW,290,14.0,17.0,57,0.00,,,-99.99,,2013-01-20 23:02:00,
2013-01-20 18:11:00,18.0,3.0,30.14,West,280,9.0,18.0,52,0.00,,,-99.99,,2013-01-20 23:11:00,
2013-01-20 18:22:00,18.0,3.0,30.14,WNW,290,8.0,16.0,52,0.00,,,-99.99,,2013-01-20 23:22:00,
2013-01-20 18:32:00,18.0,5.0,30.14,WNW,290,7.0,16.0,57,0.00,,,-99.99,,2013-01-20 23:32:00,
2013-01-20 18:42:00,18.0,5.0,30.14,WNW,290,12.0,16.0,57,0.00,,,-99.99,,2013-01-20 23:42:00,
2013-01-20 18:52:00,16.0,3.0,30.15,West,280,8.0,-999.0,56,0.00,,,-99.99,,2013-01-20 23:52:00,
2013-01-20 19:02:00,16.0,5.0,30.14,West,280,8.0,-999.0,61,0.00,,,-99.99,,2013-01-21 00:02:00,
2013-01-20 19:11:00,16.0,3.0,30.14,West,280,10.0,-999.0,56,0.00,,,-99.99,,2013-01-21 00:11:00,
2013-01-20 19:22:00,16.0,3.0,30.15,WNW,300,8.0,-999.0,56,0.00,,,-99.99,,2013-01-21 00:22:00,
2013-01-20 19:32:00,16.0,5.0,30.15,WNW,300,9.0,-999.0,61,0.00,,,-99.99,,2013-01-21 00:32:00,
2013-01-20 19:42:00,16.0,5.0,30.15,WNW,300,8.0,-999.0,61,0.00,,,-99.99,,2013-01-21 00:42:00,
2013-01-20 19:52:00,16.0,3.0,30.15,WNW,290,8.0,-999.0,56,0.00,,,-99.99,,2013-01-21 00:52:00,
2013-01-20 20:11:00,16.0,3.0,30.15,WNW,290,8.0,-999.0,56,0.00,,,-99.99,,2013-01-21 01:11:00,
2013-01-20 20:22:00,16.0,3.0,30.15,WNW,290,6.0,-999.0,56,0.00,,,-99.99,,2013-01-21 01:22:00,
2013-01-20 20:32:00,16.0,3.0,30.15,WNW,300,7.0,-999.0,56,0.00,,,-99.99,,2013-01-21 01:32:00,
2013-01-20 20:42:00,16.0,3.0,30.15,NW,310,6.0,-999.0,56,0.00,,,-99.99,,2013-01-21 01:42:00,
2013-01-20 20:52:00,16.0,3.0,30.15,West,280,6.0,-999.0,56,0.00,,,-99.99,,2013-01-21 01:52:00,
2013-01-20 21:01:00,16.0,3.0,30.15,West,280,6.0,-999.0,56,0.00,,,-99.99,,2013-01-21 02:01:00,
2013-01-20 21:21:00,12.0,3.0,30.15,West,280,5.0,-999.0,66,0.00,,,-99.99,,2013-01-21 02:21:00,
2013-01-20 21:32:00,12.0,3.0,30.15,West,280,5.0,-999.0,66,0.00,,,-99.99,,2013-01-21 02:32:00,
2013-01-20 21:42:00,12.0,3.0,30.15,West,270,6.0,-999.0,66,0.00,,,-99.99,,2013-01-21 02:42:00,
2013-01-20 21:52:00,12.0,3.0,30.15,West,260,6.0,-999.0,66,0.00,,,-99.99,,2013-01-21 02:52:00,
2013-01-20 22:02:00,12.0,3.0,30.15,West,260,6.0,-999.0,66,0.00,,,-99.99,,2013-01-21 03:02:00,
2013-01-20 22:21:00,14.0,7.0,30.14,West,260,7.0,-999.0,72,0.00,,,-99.99,,2013-01-21 03:21:00,
2013-01-20 22:32:00,14.0,7.0,30.14,West,260,6.0,-999.0,72,0.00,,,-99.99,,2013-01-21 03:32:00,
2013-01-20 22:42:00,14.0,7.0,30.14,West,260,5.0,-999.0,72,0.00,,,-99.99,,2013-01-21 03:42:00,
2013-01-20 22:52:00,14.0,7.0,30.14,West,260,6.0,-999.0,72,0.00,,,-99.99,,2013-01-21 03:52:00,
2013-01-20 23:01:00,14.0,7.0,30.14,West,260,6.0,-999.0,72,0.00,,,-99.99,,2013-01-21 04:01:00,
2013-01-20 23:22:00,12.0,5.0,30.13,WSW,250,5.0,-999.0,72,0.00,,,-99.99,,2013-01-21 04:22:00,
2013-01-20 23:32:00,12.0,5.0,30.13,WSW,240,3.0,-999.0,72,0.00,,,-99.99,,2013-01-21 04:32:00,
2013-01-20 23:42:00,12.0,5.0,30.13,WSW,250,5.0,-999.0,72,0.00,,,-99.99,,2013-01-21 04:42:00,
2013-01-20 23:52:00,12.0,7.0,30.12,SW,230,3.0,-999.0,78,0.00,,,-99.99,,2013-01-21 04:52:00,